Home   Weather   Santorini   Past weeks
Flag for Greece

Past Weather in Santorini, Greece — Yesterday and Last 2 Weeks

Now
57 °F

Light rain. Overcast.


Feels Like: 53 °F
Forecast: 58 / 61 °F
Wind: 23 mph from North

Location: Santorini Island

Current Time: Nov 15, 2018 at 4:38:45 am

Latest Report: Nov 15, 2018 at 4:20 am


Visibility: N/A

Pressure: 30.04 "Hg

Humidity: 63%

Dew Point: 45 °F

Location of SantoriniLocation

Past Weather in Santorini — Graph

°F

Santorini Temperature Yesterday

Maximum temperature yesterday: 63 °F (at 12:50 pm)
Minimum temperature yesterday: 57 °F (at 4:50 am)
Average temperature yesterday: 59 °F

High & Low Weather Summary for the Past Weeks

 TemperatureHumidityPressure
High70 °F (Oct 31, 10:50 am)94% (Oct 31, 4:20 am)30.27 "Hg (Oct 31, 4:20 am)
Low55 °F (Nov 8, 5:50 am)49% (Nov 13, 11:50 am)30.01 "Hg (Nov 5, 1:50 pm)
Average63 °F74%30.10 "Hg
* Reported Oct 31 3:20 am — Nov 15 3:20 am, Santorini. Weather by CustomWeather, © 2018

Note: Actual official high and low records may vary slightly from our data, if they occured in-between our weather recording intervals... More about our weather records

Advertising

Santorini Weather History for the Previous 24 Hours

Scroll right to see more
 ConditionsComfort  
Time TempWeatherWind HumidityBarometerVisibility
3:20 am
Thu, Nov 15
57 °FLight rain. Overcast.25 mph63%30.04 "HgN/A
2:50 am57 °FLight rain. Overcast.22 mph63%30.04 "HgN/A
2:20 am57 °FLight rain. Overcast.23 mph63%30.04 "HgN/A
1:50 am57 °FLight rain. Overcast.22 mph63%30.04 "HgN/A
1:20 am57 °FLight rain. Overcast.22 mph63%30.04 "HgN/A
12:50 am57 °FLight rain. Overcast.26 mph67%30.04 "HgN/A
12:20 am57 °FLight rain. Overcast.24 mph67%30.07 "HgN/A
11:50 pm
Wed, Nov 14
57 °FLight rain. Overcast.20 mph67%30.07 "HgN/A
11:20 pm57 °FLight rain. Overcast.16 mph67%30.07 "HgN/A
10:50 pm57 °FLight rain. Overcast.21 mph67%30.07 "HgN/A
10:20 pm57 °FLight rain. Overcast.29 mph67%30.04 "HgN/A
9:50 pm57 °FPassing clouds.26 mph67%30.04 "HgN/A
9:20 pm57 °FPassing clouds.22 mph72%30.07 "HgN/A
8:50 pm57 °FPassing clouds.22 mph72%30.07 "HgN/A
8:20 pm57 °FPassing clouds.22 mph72%30.07 "HgN/A
7:50 pm57 °FPassing clouds.15 mph72%30.07 "HgN/A
7:20 pm57 °FPassing clouds.17 mph67%30.07 "HgN/A
6:50 pm57 °FPassing clouds.21 mph67%30.07 "HgN/A
6:20 pm57 °FPassing clouds.26 mph67%30.07 "HgN/A
5:50 pm57 °FPassing clouds.26 mph67%30.07 "HgN/A
5:20 pm59 °FPassing clouds.25 mph63%30.07 "HgN/A
4:50 pm59 °FScattered clouds.25 mph63%30.07 "HgN/A
4:20 pm59 °FScattered clouds.26 mph63%30.07 "HgN/A
3:50 pm59 °FScattered clouds.26 mph63%30.07 "HgN/A
3:20 pm59 °FScattered clouds.25 mph63%30.07 "HgN/A
2:50 pm59 °FScattered clouds.25 mph63%30.07 "HgN/A
2:20 pm61 °FScattered clouds.23 mph59%30.07 "HgN/A
1:50 pm61 °FScattered clouds.23 mph59%30.07 "HgN/A
1:20 pm63 °FScattered clouds.25 mph56%30.09 "HgN/A
12:50 pm63 °FScattered clouds.25 mph56%30.09 "HgN/A
12:20 pm61 °FScattered clouds.22 mph55%30.09 "HgN/A
11:50 am61 °FScattered clouds.17 mph55%30.09 "HgN/A
11:20 am61 °FScattered clouds.14 mph59%30.12 "HgN/A
10:50 am61 °FScattered clouds.14 mph59%30.12 "HgN/A
10:20 am61 °FScattered clouds.17 mph59%30.09 "HgN/A
9:50 am61 °FScattered clouds.17 mph59%30.09 "HgN/A
9:20 am59 °FScattered clouds.17 mph63%30.09 "HgN/A
8:50 am59 °FScattered clouds.17 mph63%30.09 "HgN/A
8:20 am57 °FScattered clouds.21 mph63%30.09 "HgN/A
7:50 am57 °FScattered clouds.21 mph63%30.09 "HgN/A
7:20 am57 °FScattered clouds.20 mph67%30.09 "HgN/A
6:50 am57 °FPassing clouds.20 mph67%30.09 "HgN/A
6:20 am57 °FPassing clouds.17 mph72%30.09 "HgN/A
5:50 am57 °FLight rain. Overcast.16 mph67%30.09 "HgN/A
5:20 am57 °FLight rain. Overcast.23 mph72%30.09 "HgN/A
4:50 am57 °FLight rain. Overcast.23 mph72%30.09 "HgN/A
4:20 am59 °FLight rain. Overcast.20 mph68%30.09 "HgN/A
Weather by CustomWeather, © 2018

See weather overview